星链-30434 (STARLINK-30434 )

导读 | 豆包AI

STARLINK-30434是美国SpaceX公司星链星座的成员卫星,于北京时间2023年9月16日发射入轨。它属于Starlink第二代低轨宽带通信卫星,采用平板构型设计,搭载氪工质霍尔推进器,支持自主轨道调整与避撞功能。作为星链全球互联网组网的组成部分,该卫星运行于近地轨道,通过Ku/Ka波段通信提供全球覆盖的宽带互联网接入服务,设计服役寿命约5-7年,退役后将受控离轨再入大气层销毁。

Basic Information
目录编号:
57875
目录名称:
STARLINK-30434
国际标识:
2023-144M
轨道中心:
EARTH
卫星名称:
星链-30434
卫星全名:
星链-30434 (STARLINK-30434 )
卫星状态:
在轨 (已飞行957 天)
发射日期:
2023-09-16 UTC
国别 :
美国 (US)
星等 :
--
Orbit Information
数据来源 国际轨道数据 AOE轨道数据
星历时间 2026-04-30T08:16:25+0800
18小时前
查看轨道信息
2026-04-26T18:00:00+0800
4天前
查看轨道信息
半长轴 6861.164km 6861.129km
偏心率 0.0001367 0.0001082
轨道倾角 43.004° 43.001°
近地点辐角 277.468° 244.019°
升交点赤经 355.598° 15.903°
平近点角 82.601° 124.478°
近地点 482.089km 482.249km
远地点 483.965km 483.735km
周期 94.266分钟 94.266分钟
每日圈数 15.275875 15.275991
Detailed Information
固有亮度:
5
最大亮度:
0.3
卫星平台:
Starlink v2.0 mini
覆盖范围:
全球
运营商:
太空探索技术公司
运营商所在国:
美国
制造商(研发单位):
太空探索技术公司
制造商所在国:
美国
使用方式:
暂无
Satellite Introduction
星链(Starlink)计划是由太空探索技术公司(SpaceX)提出的一个巨型低轨卫星互联网星座项目,计划在2019年至2024年间在太空搭建由约1.2万颗卫星组成的“星链”网络,其中1584颗将部署在地球上空550千米处的近地轨道,并从2020年开始工作。该卫星仍在工作。
2D Orbit Map
3D Orbit Map
Orbit Altitude Analysis Chart
Orbit Inclination Analysis Chart
Orbit Comprehensive Analysis Chart
View Comprehensive Chart